Date String (YYYY-MM-DD hh:mm:ss) UTC,Instrument flags,Ambient pressure (hPa),Sample flow (lpm),Bypass flow (lpm),Sample temperature (°C),Ambient temperature (°C),ASC tube jacket temperature (°C),LED temperature (°C),Box temperature (°C),Sample RH (%),Span deviation,Mass concentration (μg/m³),Mass concentration (μg/m³),Mass concentration (μg/m³)
DateTimeUTC,F1_M11,P_M11,Q1_M11,Q2_M11,T1_M11,T2_M11,T3_M11,T4_M11,T5_M11,U1_M11,ZSPAN_M11,X0_M11,X2_M11,X1_M11
2022-05-27 10:00:00,,0825.6,4.99,0.00,30.2,29.0,00.0,39.1,32.0,11.0,0000.0,0004.55,0002.36,0001.56
2022-05-27 10:01:00,,0825.5,5.00,0.00,30.2,29.0,00.0,39.1,31.9,11.0,0000.0,0004.28,0002.35,0001.56
2022-05-27 10:02:00,,0825.6,5.01,0.00,30.2,29.0,00.0,39.1,32.0,11.1,0000.0,0004.30,0002.31,0001.55
2022-05-27 10:03:00,,0825.5,4.99,0.00,30.2,29.0,00.0,39.1,32.0,11.3,0000.0,0004.32,0002.31,0001.54
2022-05-27 10:04:00,,0825.6,4.99,0.00,30.2,29.0,00.0,39.1,32.0,11.2,0000.0,0004.14,0002.26,0001.55
2022-05-27 10:05:00,,0825.5,4.99,0.00,30.2,29.0,00.0,39.1,32.0,11.2,0000.0,0004.02,0002.20,0001.55
2022-05-27 10:06:00,,0825.6,5.00,0.00,30.2,29.0,00.0,39.1,32.0,11.2,0000.0,0004.05,0002.21,0001.55
2022-05-27 10:07:00,,0825.6,5.01,0.00,30.2,29.0,00.0,39.1,32.0,11.3,0000.0,0004.36,0002.23,0001.58
2022-05-27 10:08:00,,0825.5,4.98,0.00,30.2,29.0,00.0,39.1,32.0,11.4,0000.0,0004.30,0002.21,0001.58
2022-05-27 10:09:00,,0825.6,5.01,0.00,30.2,29.0,00.0,39.1,31.9,11.4,0000.0,0004.03,0002.19,0001.58
2022-05-27 10:10:00,,0825.6,5.00,0.00,30.2,28.9,00.0,39.1,31.9,11.2,0000.0,0004.10,0002.25,0001.59
2022-05-27 10:11:00,,0825.6,5.00,0.00,30.1,28.9,00.0,39.1,31.9,11.2,0000.0,0004.20,0002.28,0001.60
2022-05-27 10:12:00,,0825.6,5.00,0.00,30.1,28.9,00.0,39.1,31.9,11.4,0000.0,0004.37,0002.34,0001.61
2022-05-27 10:13:00,,0825.6,5.01,0.00,30.1,28.9,00.0,39.1,31.9,11.2,0000.0,0004.33,0002.36,0001.62
2022-05-27 10:14:00,,0825.6,4.98,0.00,30.1,28.9,00.0,39.1,31.9,11.2,0000.0,0004.40,0002.38,0001.63
2022-05-27 10:15:00,,0825.6,5.01,0.00,30.1,28.9,00.0,39.1,31.9,11.2,0000.0,0004.57,0002.44,0001.63
2022-05-27 10:16:00,,0825.6,5.01,0.00,30.1,28.9,00.0,39.1,31.9,11.0,0000.0,0004.57,0002.49,0001.64
2022-05-27 10:17:00,,0825.6,4.99,0.00,30.1,28.9,00.0,39.1,31.9,10.9,0000.0,0005.49,0002.53,0001.64
2022-05-27 10:18:00,,0825.6,5.01,0.00,30.1,28.9,00.0,39.1,31.9,11.1,0000.0,0005.74,0002.52,0001.62
2022-05-27 10:19:00,,0825.5,5.00,0.00,30.1,28.9,00.0,39.1,31.9,11.5,0000.0,0005.83,0002.53,0001.64
2022-05-27 10:20:00,,0825.6,5.00,0.00,30.1,28.9,00.0,39.1,31.9,11.8,0000.0,0005.94,0002.55,0001.66
2022-05-27 10:21:00,,0825.6,5.00,0.00,30.1,28.9,00.0,39.1,31.9,11.7,0000.0,0006.05,0002.56,0001.67
2022-05-27 10:22:00,,0825.6,5.00,0.00,30.1,28.9,00.0,39.1,31.9,11.7,0000.0,0006.09,0002.58,0001.70
2022-05-27 10:23:00,,0825.6,5.00,0.00,30.1,28.9,00.0,39.1,31.9,11.8,0000.0,0006.23,0002.62,0001.71
2022-05-27 10:24:00,,0825.5,4.99,0.00,30.1,28.9,00.0,39.1,31.9,11.9,0000.0,0006.33,0002.65,0001.74
2022-05-27 10:25:00,,0825.5,5.01,0.00,30.1,28.9,00.0,39.1,31.9,11.9,0000.0,0006.45,0002.65,0001.76
2022-05-27 10:26:00,,0825.5,4.99,0.00,30.1,28.9,00.0,39.0,31.9,11.8,0000.0,0007.38,0002.64,0001.79
2022-05-27 10:27:00,,0825.5,5.00,0.00,30.1,28.9,00.0,39.0,31.9,11.8,0000.0,0007.70,0002.70,0001.81
2022-05-27 10:28:00,,0825.5,5.00,0.00,30.1,28.9,00.0,39.0,31.9,11.7,0000.0,0007.39,0002.78,0001.83
2022-05-27 10:29:00,,0825.5,5.02,0.00,30.1,28.9,00.0,39.0,31.9,11.8,0000.0,0006.96,0002.81,0001.86
2022-05-27 10:30:00,,0825.5,5.00,0.00,30.1,28.9,00.0,39.0,31.9,11.8,0000.0,0006.81,0002.82,0001.89
2022-05-27 10:31:00,,0825.6,4.99,0.00,30.1,28.9,00.0,39.0,31.9,11.6,0000.0,0007.73,0002.89,0001.90
2022-05-27 10:32:00,,0825.5,5.01,0.00,30.1,28.9,00.0,39.0,31.9,11.7,0000.0,0007.83,0002.91,0001.91
2022-05-27 10:33:00,,0825.6,5.01,0.00,30.1,28.9,00.0,39.0,31.9,11.7,0000.0,0007.74,0002.89,0001.92
2022-05-27 10:34:00,,0825.6,4.99,0.00,30.1,28.9,00.0,39.0,31.9,11.5,0000.0,0007.62,0002.84,0001.93
2022-05-27 10:35:00,,0825.6,4.99,0.00,30.1,28.9,00.0,39.0,31.9,11.4,0000.0,0007.61,0002.85,0001.92
2022-05-27 10:36:00,,0825.5,5.01,0.00,30.1,28.9,00.0,39.0,31.9,11.6,0000.0,0007.79,0002.91,0001.91
2022-05-27 10:37:00,,0825.5,5.00,0.00,30.1,28.9,00.0,39.0,31.9,11.2,0000.0,0007.52,0002.94,0001.88
2022-05-27 10:38:00,,0825.5,5.00,0.00,30.1,28.9,00.0,39.0,31.9,11.2,0000.0,0007.26,0002.88,0001.86
2022-05-27 10:39:00,,0825.5,5.00,0.00,30.1,28.9,00.0,39.0,31.9,11.0,0000.0,0006.93,0002.74,0001.84
2022-05-27 10:40:00,,0825.5,5.01,0.00,30.1,28.9,00.0,39.0,31.9,10.9,0000.0,0006.98,0002.75,0001.82
2022-05-27 10:41:00,,0825.5,5.00,0.00,30.1,28.9,00.0,39.0,31.9,11.0,0000.0,0006.91,0002.70,0001.78
2022-05-27 10:42:00,,0825.5,5.00,0.00,30.1,28.9,00.0,39.0,31.9,10.9,0000.0,0005.48,0002.62,0001.75
2022-05-27 10:43:00,,0825.4,5.00,0.00,30.1,28.9,00.0,39.0,31.9,10.9,0000.0,0005.52,0002.56,0001.72
2022-05-27 10:44:00,,0825.5,4.99,0.00,30.1,28.9,00.0,39.0,31.9,10.7,0000.0,0005.80,0002.56,0001.68
2022-05-27 10:45:00,,0825.4,5.01,0.00,30.1,28.9,00.0,39.0,31.9,10.6,0000.0,0005.82,0002.54,0001.66
2022-05-27 10:46:00,,0825.5,4.99,0.00,30.1,28.9,00.0,39.0,31.9,10.7,0000.0,0005.76,0002.49,0001.64
2022-05-27 10:47:00,,0825.4,4.99,0.00,30.1,28.9,00.0,39.0,31.9,10.9,0000.0,0005.05,0002.38,0001.63
2022-05-27 10:48:00,,0825.4,5.02,0.00,30.1,28.9,00.0,39.0,31.9,11.0,0000.0,0004.52,0002.35,0001.63
2022-05-27 10:49:00,,0825.4,4.99,0.00,30.1,28.8,00.0,39.0,31.9,11.2,0000.0,0004.60,0002.36,0001.63
2022-05-27 10:50:00,,0825.5,5.01,0.00,30.1,28.8,00.0,39.0,31.9,11.3,0000.0,0005.84,0002.42,0001.63
2022-05-27 10:51:00,,0825.4,5.00,0.00,30.1,28.8,00.0,39.0,31.9,11.3,0000.0,0005.86,0002.39,0001.63
2022-05-27 10:52:00,,0825.4,5.00,0.00,30.1,28.8,00.0,39.0,31.9,11.1,0000.0,0005.97,0002.37,0001.63
2022-05-27 10:53:00,,0825.4,5.00,0.00,30.1,28.8,00.0,39.0,31.9,10.9,0000.0,0006.01,0002.40,0001.63
2022-05-27 10:54:00,,0825.4,5.00,0.00,30.1,28.8,00.0,39.0,31.9,10.9,0000.0,0005.85,0002.42,0001.64
2022-05-27 10:55:00,,0825.4,4.99,0.00,30.1,28.8,00.0,39.0,31.8,11.2,0000.0,0005.47,0002.40,0001.63
2022-05-27 10:56:00,,0825.5,5.02,0.00,30.1,28.8,00.0,39.0,31.9,11.4,0000.0,0005.53,0002.44,0001.63
2022-05-27 10:57:00,,0825.5,4.99,0.00,30.1,28.8,00.0,39.0,31.8,11.1,0000.0,0005.54,0002.46,0001.63
2022-05-27 10:58:00,,0825.5,4.99,0.00,30.1,28.8,00.0,39.0,31.8,11.0,0000.0,0005.87,0002.52,0001.64
2022-05-27 10:59:00,,0825.5,5.01,0.00,30.0,28.8,00.0,39.0,31.8,10.9,0000.0,0005.78,0002.48,0001.63
